Content
SEND FEEDBACK

Daily
Averages
Monthly
Summary
Grenada

SAINT GEORGE'S, GRENADA


Home > Caribbean > Grenada
Elevation: 23 feet     Latitude: 12 01N     Longitude: 061 48W

WEATHER
 
SELECT A DAY
Number of Records: 158,128;   Date Range: 6/30/96 - 11/25/14
 
SHARE

PRINT THIS DATA

[ ← Previous Day ]
WEATHER ALMANAC - APRIL 21, 2013
[ Next Day → ]
[ °C ]   °F
Weather ElementAverageHighLow
Temperature81.1 °F86 °F (11:00 am)75 °F (5:00 am)
Dewpoint73.5 °F75.2 °F (1:00 am)71.6 °F (6:00 am)
Humidity76.8 %95 % (5:00 am)58 % (11:00 am)
Barometer29.93 in29.98 in (8:00 am)29.86 in (4:00 pm)
Wind Speed12.3 mph17.3 mph (11:00 am)
Weather ElementAverage
Visibility7.1 mi
Wind DirectionE (94.4 °)

Weather ElementTotal
Precipitation---
Cooling Degree Days15.5 (Base 65)
Growing Degree Days30.5 (Base 50)
Averaged from 32 records on April 21, 2013
WEATHER CONDITIONS BREAKOUT
WIND DIRECTION BREAKOUT
WEATHER BY HOUR - APRIL 21, 2013
[ °C ]   °F
Local TimeTemperatureDewpointHumidityBarometerVisibilityWind DirectionWind SpeedGust SpeedPrecipitationEventsConditions
1:00 AM80.6 °F75.2 °F84 %29.92 in6.2 miEast (100°)11.5 mphMostly Cloudy
2:00 AM79.0 °F75.0 °F85 %29.91 in9.0 miEast (100°)11.5 mphWidespread Dust
2:00 AM78.8 °F75.2 °F89 %29.89 in6.2 miEast (100°)11.5 mphMostly Cloudy
3:00 AM78.8 °F75.2 °F89 %29.89 in6.2 miEast (90°)8.1 mphMostly Cloudy
4:00 AM78.8 °F75.2 °F89 %29.89 in6.2 miEast (100°)13.8 mphRainLight Rain Showers
5:00 AM75.0 °F74.0 °F95 %29.92 in11.0 miEast (90°)9.2 mph
5:00 AM75.2 °F73.4 °F94 %29.92 in6.2 miEast (90°)9.2 mphMostly Cloudy
6:00 AM77.0 °F71.6 °F83 %29.92 in6.2 miEast (80°)11.5 mphMostly Cloudy
7:00 AM78.8 °F73.4 °F83 %29.95 in6.2 miNNE (30°)9.2 mphMostly Cloudy
8:00 AM80.0 °F74.0 °F76 %29.98 in7.0 miESE (120°)10.4 mphRainLight Rain Showers
8:00 AM80.6 °F73.4 °F79 %29.98 in6.2 miESE (120°)10.4 mphRainLight Rain Showers
9:00 AM82.4 °F73.4 °F74 %29.98 inNNE (30°)9.2 mphMostly Cloudy
9:30 AM82.4 °F73.4 °F74 %29.98 in6.2 miNNE (30°)9.2 mphMostly Cloudy
10:00 AM82.4 °F75.2 °F79 %29.98 in6.2 miENE (60°)16.1 mphScattered Clouds
11:00 AM86.0 °F73.0 °F58 %29.97 in11.0 miESE (120°)17.3 mphWidespread Dust
11:00 AM86.0 °F73.4 °F66 %29.98 in6.2 miESE (120°)17.3 mphScattered Clouds
12:00 PM86.0 °F73.4 °F66 %29.95 in6.2 miESE (120°)17.3 mphMostly Cloudy
1:00 PM84.2 °F73.4 °F70 %29.92 in6.2 miSE (130°)13.8 mphMostly Cloudy
2:00 PM84.0 °F73.0 °F62 %29.91 in9.0 miSE (130°)13.8 mphMostly Cloudy
2:00 PM84.2 °F73.4 °F70 %29.92 in6.2 miSE (130°)13.8 mphMostly Cloudy
3:00 PM84.2 °F73.4 °F70 %29.89 in6.2 miESE (120°)17.3 mphScattered Clouds
4:00 PM84.2 °F71.6 °F66 %29.86 in6.2 miESE (120°)17.3 mphPartly Cloudy
5:00 PM84.0 °F72.0 °F60 %29.88 in11.0 miESE (120°)15.0 mphWidespread Dust
5:00 PM84.2 °F71.6 °F66 %29.86 in6.2 miESE (120°)15.0 mphPartly Cloudy
6:00 PM82.4 °F73.4 °F74 %29.89 in6.2 miEast (100°)13.8 mphScattered Clouds
7:00 PM80.6 °F73.4 °F79 %29.92 in6.2 miEast (100°)13.8 mphMostly Cloudy
8:00 PM80.0 °F73.0 °F75 %29.93 in9.0 miEast (90°)9.2 mphWidespread Dust
8:00 PM80.6 °F73.4 °F79 %29.92 in6.2 miEast (90°)9.2 mphPartly Cloudy
9:00 PM80.6 °F73.4 °F79 %29.95 in6.2 miCalmScattered Clouds
10:00 PM78.8 °F73.4 °F83 %29.95 in6.2 miEast (90°)11.5 mphScattered Clouds
11:00 PM78.0 °F73.0 °F79 %29.96 in9.0 miEast (90°)13.8 mphWidespread Dust
11:00 PM78.8 °F73.4 °F83 %29.95 in6.2 miEast (90°)13.8 mphScattered Clouds
Hourly data recorded from TGPY, located miles away from Saint George's, Grenada







STORIES FROM OUR PARTNERS